User: anonymous   Login
Location: LDNL
(36.4545°S, 141.6685°E)
Time: 02:56:41
(UTC+10:00)
Language:

KAITUO 1B - Orbit

View from above orbital plane
View from above orbital plane
View from above satellite
View from above satellite

Ground track
Ground track

The orbit data is extracted from the following two-line orbital elements,

1 40912U 15049P   22137.11537681  .00013213  00000-0  52479-3 0  9992
2 40912  97.4387 148.6818 0014816  58.5654  14.8632 15.25351506368975
Epoch (UTC): 17 May 2022 02:46:08
Eccentricity: 0.0014816
inclination: 97.4387°
perigee height: 479 km
apogee height: 500 km
right ascension of ascending node: 148.6818°
argument of perigee: 58.5654°
revolutions per day: 15.25351506
mean anomaly at epoch: 14.8632°
orbit number at epoch: 36897

The dashed part of the orbit path shows where the satellite is in the earth's shadow,  

DLR